{"data":{"norad_id":67549,"epoch":"2026-09-19T10:42:02.658240Z","epoch_age_seconds":163255,"freshness":"FRESH","line1":"1 67549U 26014T   26262.44586410  .00011810  00000+0  36735-3 0  9991","line2":"2 67549  97.2850 147.7798 0001680  91.4539 268.6897 15.33463433 38410","mean_motion":15.33463433,"eccentricity":0.000168,"inclination_deg":97.285,"raan_deg":147.7798,"arg_perigee_deg":91.4539,"mean_anomaly_deg":268.6897,"bstar":0.00036735,"rev_number":3841,"period_min":93.90507585713,"perigee_km":464.33860233255,"apogee_km":466.6380604439,"semimajor_km":6843.6253313882,"source":"CELESTRAK","updated_at":"2026-09-20T09:00:43.570976Z"}}